Regional Weather Roundup
Issued by NWS

Home | Current Version | Previous Version | Text Only | Print | Product List | Glossary Off
Versions: 1 2 3 4 5 6 7 8 9 10 11 12 13 14 15 16 17 18 19 20 21 22 23 24 25 26 27 28 29 30 31 32 33 34 35 36 37 38 39 40 41 42 43 44 45 46 47 48 49 50

000
ASUS43 KLMK 240010
RWRKY
KENTUCKY REGIONAL WEATHER ROUNDUP
NATIONAL WEATHER SERVICE LOUISVILLE KY
800 PM EDT MON MAY 23 2016

NOTE "FAIR" INDICATES FEW OR NO CLOUDS BELOW 12,000 FEET
WITH NO SIGNIFICANT WEATHER AND/OR OBSTRUCTIONS TO VISIBILITY.

KYZ001>023-026-027-061>063-070>075-240100-
WESTERN AND SOUTH CENTRAL KENTUCKY

CITY           SKY/WX    TMP DP  RH WIND       PRES   REMARKS
PADUCAH        CLOUDY    76  58  53 W3        29.93S
HENDERSON      SUNNY     79  50  36 E3        29.94S
OWENSBORO      CLEAR     79  49  34 CALM      29.97R
HOPKINSVILLE   CLEAR     77  55  45 E5        29.96R
BOWLING GREEN  CLEAR     75  51  43 E6        29.98R
GLASGOW        CLEAR     75  41  29 NE3       29.99R
$$

KYZ024-025-028>034-038-045-046-053-240100-
NORTH CENTRAL KENTUCKY

CITY           SKY/WX    TMP DP  RH WIND       PRES   REMARKS
LOUISVILLE/SDF CLEAR     76  45  33 SE5       29.98S
LOUISVILLE/LOU CLEAR     77  43  29 E6        29.99S
FORT KNOX      CLEAR     74  43  32 NE2       29.98R
$$

KYZ035>037-039>044-047>052-055>060-089>105-240100-
NORTHEAST KENTUCKY

CITY           SKY/WX    TMP DP  RH WIND       PRES   REMARKS
LEXINGTON      CLEAR     73  51  46 SW3       30.02S
COVINGTON      PTCLDY    71  53  52 S3        30.01R
FRANKFORT      CLEAR     72  49  44 E6        30.00S
$$

KYZ054-064>069-076>088-106>120-240100-
SOUTHEAST KENTUCKY

CITY           SKY/WX    TMP DP  RH WIND       PRES   REMARKS
JACKSON        CLEAR     69  50  50 CALM      30.03S
LONDON         CLEAR     72  46  39 E3        30.02R
SOMERSET       CLEAR     72  46  40 CALM      30.02S
MIDDLESBORO    MOCLDY    69  54  58 CALM      30.02R
MONTICELLO     CLEAR     72  51  47 N14       30.02S
$$





USA.gov is the U.S. government's official web portal to all federal, state and local government web resources and services.